TimeMST,TemperatureF,Dew PointF,Humidity,Sea Level PressureIn,VisibilityMPH,Wind Direction,Wind SpeedMPH,Gust SpeedMPH,PrecipitationIn,Events,Conditions,WindDirDegrees,DateUTC
12:56 AM,24.1,10.0,55,30.36,10.0,SSW,19.6,-,N/A,,Clear,210,2013-01-03 07:56:00
1:56 AM,24.1,10.0,55,30.35,10.0,SSW,17.3,-,N/A,,Clear,200,2013-01-03 08:56:00
2:56 AM,26.1,10.0,51,30.34,10.0,SSW,17.3,-,N/A,,Clear,210,2013-01-03 09:56:00
3:56 AM,26.1,10.9,53,30.31,10.0,SSW,24.2,-,N/A,,Clear,200,2013-01-03 10:56:00
4:56 AM,27.0,10.9,51,30.31,10.0,SSW,21.9,-,N/A,,Clear,200,2013-01-03 11:56:00
5:56 AM,27.0,10.9,51,30.30,10.0,SSW,20.7,-,N/A,,Clear,200,2013-01-03 12:56:00
6:56 AM,26.1,10.9,53,30.28,10.0,SSW,17.3,-,N/A,,Clear,200,2013-01-03 13:56:00
7:56 AM,28.0,10.9,49,30.27,10.0,SSW,20.7,-,N/A,,Clear,210,2013-01-03 14:56:00
8:56 AM,30.0,10.9,45,30.28,10.0,SSW,21.9,-,N/A,,Clear,210,2013-01-03 15:56:00
9:56 AM,30.0,12.9,49,30.29,10.0,SSW,18.4,-,N/A,,Clear,200,2013-01-03 16:56:00
10:56 AM,30.9,14.0,50,30.29,10.0,SSW,24.2,-,N/A,,Clear,210,2013-01-03 17:56:00
11:56 AM,35.1,15.1,44,30.25,10.0,SSW,21.9,-,N/A,,Clear,210,2013-01-03 18:56:00
12:56 PM,36.0,16.0,44,30.24,10.0,SSW,15.0,-,N/A,,Clear,210,2013-01-03 19:56:00
1:56 PM,37.0,18.0,46,30.23,10.0,SSW,12.7,-,N/A,,Clear,210,2013-01-03 20:56:00
2:56 PM,36.0,18.0,48,30.22,10.0,SSW,16.1,-,N/A,,Clear,210,2013-01-03 21:56:00
3:56 PM,36.0,16.0,44,30.22,10.0,SSW,18.4,-,N/A,,Clear,210,2013-01-03 22:56:00
4:56 PM,35.1,15.1,44,30.22,10.0,SSW,17.3,-,N/A,,Clear,210,2013-01-03 23:56:00
5:56 PM,34.0,12.9,42,30.24,10.0,SSW,15.0,-,N/A,,Clear,210,2013-01-04 00:56:00
6:56 PM,30.9,14.0,50,30.25,10.0,SSW,13.8,-,N/A,,Clear,210,2013-01-04 01:56:00
7:56 PM,30.0,15.1,54,30.22,10.0,SSW,15.0,-,N/A,,Clear,200,2013-01-04 02:56:00
8:56 PM,28.9,16.0,58,30.20,10.0,SSW,15.0,-,N/A,,Clear,200,2013-01-04 03:56:00
9:56 PM,35.1,12.9,40,30.17,10.0,SSW,8.1,-,N/A,,Clear,210,2013-01-04 04:56:00
10:56 PM,33.1,12.9,43,30.16,10.0,SSW,17.3,-,N/A,,Clear,210,2013-01-04 05:56:00
11:56 PM,32.0,12.0,44,30.15,10.0,SW,13.8,18.4,N/A,,Clear,220,2013-01-04 06:56:00